This is the latest recevied weather packets stored in our database for station/object KD9JJA. If no packets are shown the sender has not sent any weather packets the latest 10 day(s).
| Time | Temp. | Humidity | Pressure | Rain* | Wind** | Luminosity | Snow |
|---|---|---|---|---|---|---|---|
| 1777989738 | 15° C | 99% | 1009.8 hPa | 0 mm | - | 86 W/m² | - |
| 1777989434 | 15° C | 99% | 1009.7 hPa | 0 mm | - | 83 W/m² | - |
| 1777989131 | 15° C | 99% | 1009.9 hPa | 0 mm | - | 82 W/m² | - |
| 1777988826 | 15° C | 99% | 1009.7 hPa | 0 mm | - | 79 W/m² | - |
| 1777988525 | 15° C | 99% | 1009.7 hPa | 0 mm | - | 74 W/m² | - |
| 1777988221 | 14.44° C | 99% | 1009.7 hPa | 0 mm | - | 67 W/m² | - |
| 1777987917 | 14.44° C | 99% | 1010 hPa | 0 mm | - | 63 W/m² | - |
| 1777987613 | 14.44° C | 99% | 1009.8 hPa | 0 mm | - | 66 W/m² | - |
| 1777987311 | 14.44° C | 99% | 1010 hPa | 0 mm | - | 61 W/m² | - |
| 1777987008 | 14.44° C | 99% | 1009.8 hPa | 0 mm | - | 59 W/m² | - |
| 1777986705 | 14.44° C | 99% | 1009.9 hPa | 0 mm | - | 59 W/m² | - |
| 1777986403 | 14.44° C | 99% | 1009.6 hPa | 0 mm | - | 59 W/m² | - |
| 1777986101 | 14.44° C | 99% | 1009.8 hPa | 0 mm | - | 60 W/m² | - |
| 1777985792 | 14.44° C | 99% | 1009.5 hPa | 0 mm | - | 58 W/m² | - |
| 1777985489 | 14.44° C | 99% | 1009.5 hPa | 0 mm | - | 56 W/m² | - |
| 1777985186 | 14.44° C | 99% | 1009.6 hPa | 0 mm | - | 56 W/m² | - |
| 1777984882 | 13.89° C | 99% | 1009.6 hPa | 0 mm | - | 52 W/m² | - |
| 1777984577 | 13.89° C | 99% | 1009.3 hPa | 0 mm | - | 46 W/m² | - |
| 1777984269 | 13.89° C | 99% | 1009.4 hPa | 0 mm | - | 44 W/m² | - |
| 1777983966 | 13.89° C | 99% | 1009.4 hPa | 0 mm | - | 44 W/m² | - |
| 1777983663 | 13.89° C | 99% | 1009.3 hPa | 0 mm | - | 41 W/m² | - |
| 1777983359 | 13.89° C | 99% | 1009.3 hPa | 0 mm | - | 39 W/m² | - |
| 1777983056 | 13.89° C | 99% | 1009.5 hPa | 0 mm | - | 35 W/m² | - |
| 1777982752 | 13.89° C | 99% | 1009.4 hPa | 0 mm | - | 29 W/m² | - |
| 1777982448 | 13.89° C | 99% | 1009.4 hPa | 0 mm | - | 21 W/m² | - |
* Rain latest hour (hover to see other rain measurements)
** Current wind speed in m/s (hover to see current wind gust speed)